This demonstration page uses our WeatherBlox Daily Observations layout. Learn more.

Left ArrowRight Arrow

41.12389, -100.76542

Hourly Observations for May 23, 2022

Temp ( °F °C ) Dew Point ( °F °C ) Humidity (%) Winds ( mph kmh ) Pressure ( in mb ) Visibility ( mi km ) Precip ( " mm )
12:53 am 00:53 Cloudy 57 13.9 32 0 39 39 SSE 9 15 30.22 1023 10 16 0.00 0.00
1:53 am 01:53 Cloudy 56 13.3 32 0 40 40 SE 7 11 30.20 1023 10 16 0.00 0.00
2:53 am 02:53 Cloudy 56 13.3 32 0 40 40 SSE 9 15 30.18 1022 10 16 0.00 0.00
3:53 am 03:53 Cloudy 55 12.8 35 1.7 47 47 S 14 22 30.18 1022 10 16 0.00 0.00
4:53 am 04:53 Cloudy 54 12.2 35 1.7 49 49 S 10 17 30.17 1022 10 16 0.00 0.00
5:53 am 05:53 Cloudy 54 12.2 35 1.7 49 49 SSE 15 24 30.16 1021 10 16 0.00 0.00
6:53 am 06:53 Cloudy with Light Rain 51 10.6 39 3.9 64 64 SSE 13 20 30.18 1022 10 16 0.00 0.00
7:53 am 07:53 Cloudy with Light Rain 47 8.3 43 6.1 86 86 SE 7 11 30.20 1023 10 16 0.06 1.52
8:53 am 08:53 Cloudy with Light Rain 47 8.3 44 6.7 90 90 SSE 9 15 30.21 1023 10 16 0.05 1.27
9:53 am 09:53 Cloudy with Light Rain 47 8.3 44 6.7 90 90 SE 12 19 30.19 1022 10 16 0.05 1.27
10:53 am 10:53 Cloudy with Light Rain 47 8.3 44 6.7 90 90 ESE 10 17 30.18 1022 10 16 0.07 1.78
11:12 am 11:12 Cloudy with Light Rain 47 8.3 44 6.7 90 90 ESE 12 19 30.19 1022 10 16 0.03 0.76
11:22 am 11:22 Cloudy with Light Rain 48 8.9 44 6.7 86 86 ESE 12 19 30.19 1022 10 16 0.04 1.02
11:29 am 11:29 Cloudy with Light Rain 48 8.9 44 6.7 86 86 ESE 13 20 30.18 1022 10 16 0.05 1.27
11:39 am 11:39 Cloudy with Light Rain 48 8.9 44 6.7 86 86 ESE 9 15 30.18 1022 10 16 0.06 1.52
11:49 am 11:49 Cloudy with Light Rain 48 9 45 7 87 87 ESE 12 19 30.17 1022 10 16 0.07 1.78
11:53 am 11:53 Cloudy with Light Rain 48 8.9 45 7.2 89 89 E 10 17 30.16 1021 10 16 0.07 1.78
12:00 pm 12:00 Cloudy with Light Rain 48 8.9 44 6.7 86 86 E 13 20 30.18 1022 10 16 0.00 0.00
12:15 pm 12:15 Cloudy with Light Rain 48 8.9 45 7.2 89 89 ESE 14 22 30.18 1022 10 16 0.01 0.25
12:29 pm 12:29 Cloudy with Light Rain 48 8.9 45 7.2 89 89 ESE 15 24 30.18 1022 10 16 0.02 0.51
12:40 pm 12:40 Cloudy with Light Rain 48 8.9 45 7.2 89 89 ESE 12 19 30.18 1022 10 16 0.02 0.51
12:51 pm 12:51 Cloudy with Light Rain 48 9 45 7 87 87 ESE 13 20 30.17 1022 10 16 0.02 0.51
12:53 pm 12:53 Cloudy with Light Rain 48 8.9 44 6.7 86 86 ESE 13 20 30.16 1021 10 16 0.02 0.51
1:17 pm 13:17 Cloudy with Rain 47 8.3 43 6.1 86 86 E 9 15 30.17 1022 5 8 0.05 1.27
1:29 pm 13:29 Cloudy with Light Rain 47 8.3 44 6.7 90 90 E 13 20 30.17 1022 8 13 0.07 1.78
1:41 pm 13:41 Cloudy with Light Rain 47 8.3 44 6.7 90 90 E 13 20 30.16 1021 10 16 0.08 2.03
1:53 pm 13:53 Cloudy with Light Rain 47 8.3 44 6.7 90 90 E 14 22 30.14 1021 10 16 0.09 2.29
2:38 pm 14:38 Cloudy with Light Rain 48 8.9 44 6.7 86 86 ESE 14 22 30.15 1021 10 16 0.02 0.51
2:53 pm 14:53 Cloudy with Light Rain 48 8.9 45 7.2 89 89 ESE 12 19 30.14 1021 10 16 0.03 0.76
3:28 pm 15:28 Cloudy with Light Rain 48 8.9 45 7.2 89 89 ESE 14 22 30.16 1021 10 16 0.02 0.51
3:46 pm 15:46 Cloudy with Light Rain 48 8.9 45 7.2 89 89 ESE 12 19 30.15 1021 10 16 0.03 0.76
3:53 pm 15:53 Cloudy with Light Rain 48 8.9 45 7.2 89 89 ESE 12 19 30.13 1020 10 16 0.03 0.76
4:03 pm 16:03 Cloudy with Light Rain 48 8.9 45 7.2 89 89 ESE 12 19 30.15 1021 10 16 0.01 0.25
4:53 pm 16:53 Cloudy with Light Rain 47 8.3 44 6.7 90 90 E 14 22 30.13 1020 10 16 0.04 1.02
5:02 pm 17:02 Cloudy with Light Rain 47 8.3 44 6.7 90 90 ESE 12 19 30.15 1021 10 16 0.00 0.00
5:17 pm 17:17 Cloudy with Light Rain 47 8.3 44 6.7 90 90 ESE 12 19 30.14 1021 10 16 0.00 0.00
5:28 pm 17:28 Cloudy with Light Rain 48 8.9 44 6.7 86 86 ESE 14 22 30.14 1020 10 16 0.00 0.00
5:35 pm 17:35 Cloudy with Light Rain 48 8.9 45 7.2 89 89 ESE 13 20 30.14 1020 10 16 0.00 0.00
5:50 pm 17:50 Cloudy with Light Rain 48 9 45 7 87 87 ESE 13 20 30.12 1020 10 16 0.01 0.25
5:53 pm 17:53 Cloudy with Light Rain 48 8.9 44 6.7 86 86 ESE 12 19 30.12 1020 10 16 0.01 0.25
6:53 pm 18:53 Mostly Cloudy 50 10 45 7.2 83 83 ESE 16 26 30.10 1019 10 16 0.00 0.00
7:53 pm 19:53 Cloudy 49 9.4 45 7.2 86 86 ESE 12 19 30.12 1020 10 16 0.00 0.00
8:53 pm 20:53 Cloudy 49 9.4 44 6.7 83 83 ESE 10 17 30.12 1020 10 16 0.00 0.00
9:53 pm 21:53 Cloudy 48 8.9 44 6.7 86 86 E 7 11 30.13 1020 10 16 0.00 0.00
10:53 pm 22:53 Cloudy 48 8.9 45 7.2 89 89 E 6 9 30.14 1021 10 16 0.00 0.00
11:53 pm 23:53 Cloudy 47 8.3 44 6.7 90 90 ESE 7 11 30.15 1021 10 16 0.00 0.00

Powered by AerisWeather